Simultaneous Nadir Overpasses (SNOs) Predictions

Prediction of SNOs between AQUA and METOP-B Satellite Orbit:

Table of predicted SNOs for the next 14.0 days since TLE Epoch: 9/15/2018
Index Date (AQUA) Time (AQUA) Lat,Lon (AQUA) SZA (AQUA ) Date (METOP-B) Time (METOP-B) Lat,Lon (METOP-B) SZA (METOP-B ) Distance(km) Time Diff (sec)
1 09/17/2018 11:23:57 -73.97,-177.00 108.25 09/17/2018 11:22:45 -73.96,-176.98 108.24 0.79 72
2 09/17/2018 12:13:26 74.01, -9.47 71.82 09/17/2018 12:13:23 74.02, -9.49 71.84 1.29 3
3 09/17/2018 13:02:52 -74.07, 158.05 108.11 09/17/2018 13:04:04 -74.08, 157.98 108.10 2.61 72
4 09/20/2018 06:58:09 -73.97,-110.57 107.15 09/20/2018 06:57:04 -73.97,-110.56 107.15 1.03 65
5 09/20/2018 07:47:38 74.03, 56.94 72.92 09/20/2018 07:47:42 74.03, 56.93 72.92 0.56 4
6 09/20/2018 08:37:08 -74.28,-136.00 106.80 09/20/2018 08:38:19 -74.29,-135.10 106.82 27.07 71
7 09/23/2018 02:32:21 -73.99, -44.15 106.05 09/23/2018 02:31:23 -73.97, -44.14 106.06 2.12 58
8 09/23/2018 03:21:50 74.05, 123.35 74.03 09/23/2018 03:22:01 74.03, 123.34 74.01 2.16 11
9 09/23/2018 04:11:25 -74.55, -70.20 105.42 09/23/2018 04:12:33 -74.53, -68.05 105.49 63.67 68
10 09/25/2018 22:06:31 -73.96, 22.37 104.99 09/25/2018 22:05:41 -73.97, 22.28 104.97 3.30 50
11 09/25/2018 22:56:00 74.02,-170.14 75.10 09/25/2018 22:56:19 74.03,-170.25 75.11 3.31 19
12 09/28/2018 17:40:43 -73.98, 88.76 103.87 09/28/2018 17:40:00 -73.97, 88.69 103.88 2.43 43
13 09/28/2018 18:30:12 74.05,-103.76 76.22 09/28/2018 18:30:37 74.08,-103.72 76.24 3.12 25




NCC Satellite Simultaneous Nadir Overpasses (SNOs) Prediction Service
